Regional Weather Roundup
Issued by NWS Wakefield, VA

Home | Current Version | Previous Version | Text Only | Print | Product List | Glossary Off
Versions: 1 2 3 4 5 6 7 8 9 10 11 12 13 14 15 16 17 18 19 20 21 22 23 24 25 26 27 28 29 30 31 32 33 34 35 36 37 38 39 40 41 42 43 44 45 46 47 48 49 50

000
ASUS41 KAKQ 040214
RWRAKQ

REGIONAL WEATHER ROUNDUP
NATIONAL WEATHER SERVICE WAKEFIELD VA
1000 PM EDT SUN MAY 03 2015

Note: "fair" indicates few or no clouds below 12,000 feet with no
significant weather and/or obstructions to visibility. * = Denotes
station may not report precipitation (e.g., rain,snow,etc.),
thunder or fog.

VAZ042-051-052>054-056-040300-
NORTHERN VIRGINIA

CITY           SKY/WX    TMP DP  RH WIND       PRES   REMARKS
WASH NATIONAL  CLEAR     67  54  63 S7        30.14R
DULLES         PTCLDY    63  45  51 S3        30.14R
FORT BELVOIR   CLEAR     57  51  80 CALM      30.14R
QUANTICO       CLEAR     63  52  67 W6        30.15R
FREDERICKSBRG* CLEAR     63  50  62 CALM      30.14R
STAFFORD*      CLEAR     56  47  71 CALM      30.19R
WARRENTON      CLEAR     56  51  80 CALM      30.14R
CULPEPER*      NOT AVBL
MANASSAS*      NOT AVBL
LEESBURG*      CLEAR     64  50  59 SW5       30.14R
WINCHESTER     PTCLDY    64  37  36 S3        30.15R
FRONT ROYAL*   FAIR      66  43  42 S5        30.13R
LURAY*         FAIR      57  48  72 CALM      30.16R
$$

VAZ048-049-060>072-079>083-040300-
CENTRAL AND SOUTH CENTRAL VIRGINIA

CITY           SKY/WX    TMP DP  RH WIND       PRES   REMARKS
RICHMOND       MOCLDY    66  46  48 CALM      30.16R
CHESTERFIELD*  FAIR      59  41  51 CALM      30.18R
PETERSBURG*    MOCLDY    55  51  86 CALM      30.18R
HANOVER        CLEAR     59  48  67 CALM      30.17R
TAPPAHANNOCK*  CLEAR     65  39  39 S3        30.17R
QUINTON*       FAIR      60  49  68 E5        30.16R
CHARLOTTSVILLE CLEAR     64  43  46 SW3       30.15R
GORDONSVILLE*  FAIR      57  49  74 CALM      30.15R
ORANGE*        CLEAR     59  46  63 CALM      30.17R
LOUISA*        CLEAR     54  48  82 CALM      30.15R
BUMPASS*       FAIR      60  47  62 CALM      30.16R
FARMVILLE*     CLEAR     59  47  62 CALM      30.16R
CREWE*         FAIR      57  50  77 CALM      30.17R
FORT PICKETT*  FAIR      60  49  67 CALM      30.18R
CHASE CITY*    FAIR      60  54  79 CALM      30.18R
CLARKSVILLE*   FAIR      55  52  88 CALM      30.18R
SOUTH HILL*    CLEAR     55  54  94 CALM      30.24R
LAWRENCEVILLE* FAIR      59  51  73 CALM      30.18R
EMPORIA*       PTCLDY    52  48  87 CALM      30.20R
$$

VAZ088>098-040300-
SOUTHEAST VIRGINIA

CITY           SKY/WX    TMP DP  RH WIND       PRES   REMARKS
NORFOLK        CLEAR     66  49  54 S3        30.17R
VIRGINIA BEACH PTCLDY    65  49  56 S6        30.17R
NORFOLK NAVAL  PTCLDY    73  48  41 S3        30.19R
WEST POINT*    CLEAR     63  46  54 CALM      30.18R
SALUDA*        FAIR      65  45  48 S8        30.16R
NEWPORT NEWS   CLEAR     60  49  66 CALM      30.17R
LANGLEY AFB    CLEAR     67  50  54 S3        30.16R
FORT EUSTIS    PTCLDY    63  51  66 E3        30.15R
WILLIAMSBURG*  PTCLDY    63  55  77 CALM      30.18R
HR EXEC AP*    FAIR      54  50  87 CALM      30.20R
FRANKLIN*      MOCLDY    58  51  77 CALM      30.19R
WAKEFIELD      MOCLDY    59  52  77 CALM      30.18R
$$

VAZ020-022-025-037-045-040300-
WEST CENTRAL AND SOUTHWEST VIRGINIA

CITY           SKY/WX    TMP DP  RH WIND       PRES   REMARKS
STAUNTON*      CLEAR     57  45  63 CALM      30.19R
WAYNESBORO*    FAIR      61  40  45 S3        30.18R
HOT SPRINGS VA CLEAR     58  35  41 S8        30.24R
LYNCHBURG      CLEAR     57  44  62 CALM      30.19R
DANVILLE       CLEAR     57  50  77 CALM      30.18R
SOUTH BOSTON*  FAIR      58  49  74 CALM      30.18R
MARTINSVILLE   PTCLDY    56  51  81 CALM      30.21R
ROANOKE        CLEAR     67  42  40 E3        30.20R
BLACKSBURG     PTCLDY    57  42  57 CALM      30.24R
DUBLIN*        CLEAR     61  48  62 CALM      30.22R
MARION*        CLEAR     61  46  59 CALM      30.23R
HILLSVILLE*    PTCLDY    62  46  56 S7        30.23R
RICHLANDS*     FAIR      64  31  29 S3        30.20R
WISE*          CLEAR     61  34  36 CALM      30.22R
ABINGDON*      PTCLDY    59  45  59 CALM      30.19R
$$

MDZ021>025-VAZ099-100-040300-
SOUTHERN MARYLAND AND THE DELMARVA PENINSULA

CITY           SKY/WX    TMP DP  RH WIND       PRES   REMARKS
PATUXENT RIVER CLEAR     65  42  43 S8        30.15R
BAY BRIDGE APT   N/A    N/A N/A N/A S6        30.14R
LEONARDTOWN    CLEAR     68  37  32 S3        30.17R
DOVER          CLEAR     62  51  67 SE2       30.11R
GEORGETOWN     CLEAR     62  50  64 S6        30.16R
EASTON         CLEAR     65  48  53 SW7       30.18R
CAMBRIDGE      CLEAR     63  46  55 CALM      30.15R
SALISBURY      CLEAR     62  50  64 CALM      30.16R
OCEAN CITY     CLEAR     53  52  96 CALM      30.16R
WALLOPS ISLAND CLEAR     60  54  80 SW3       30.17R
ACCOMACK*      CLEAR     63  48  59 S7        30.17R
$$

NCZ012>017-030>032-040300-
NORTH CENTRAL AND EASTERN NORTH CAROLINA

CITY           SKY/WX    TMP DP  RH WIND       PRES   REMARKS
ROANOKE RAPIDS FAIR      57  52  82 CALM      30.19R
RALEIGH        PTCLDY    61  49  64 CALM      30.20R
ELIZABETH CITY PTCLDY    64  52  64 S7        30.20R
AHOSKIE*       CLEAR     56  52  86 CALM      30.20R
EDENTON*       PTCLDY    67  54  63 S12       30.20R
CURRITUCK*     PTCLDY    66  48  52 S3        30.20R
KILL DEVIL HLS PTCLDY    64  53  68 SW5       30.20R
MANTEO         PTCLDY    64  55  73 SW8       30.22R
CAPE HATTERAS  CLEAR     59  57  93 W7        30.23R
TARBORO*       FAIR      56  55  94 CALM      30.20R
GOLDSBORO      CLEAR     66  45  46 CALM      30.19R
WASHINGTON     CLEAR     65  45  48 S5        30.22R
GREENVILLE     CLEAR     63  50  63 S7        30.21R
NEW BERN       PTCLDY    63  48  58 CALM      30.24R
WILMINGTON     CLEAR     63  52  67 S3        30.23R
$$

VAZ048-040300-
ELSEWHERE

CITY           SKY/WX    TMP DP  RH WIND       PRES   REMARKS
HARRISBURG PA  PTCLDY    69  47  45 SW9       30.11R
BALTIMORE      CLEAR     64  43  46 CALM      30.13R
ANNAPOLIS      CLEAR     63  50  62 E3        30.13R
ANDREWS AFB    CLEAR     61  48  62 S8        30.14R
PHILADELPHIA   FAIR      67  41  38 SW5       30.14R
HENDERSON NC   CLEAR     60  50  68 CALM      30.19R
GREENSBORO     PTCLDY    65  46  50 S5        30.18R
ROCKY MOUNT    CLEAR     57  53  86 CALM      30.19R
$$

VAZ100-040300-
MARINE

STATION/POSITION TIME  TEMP    WIND        PRES    WAVE   SWELL
                       AIR SEA DIR/SP/G            HT/PER HT/PER
                 (UTC) (F)     (DEG/KT/KT) (MB)    (FT/S) (FT/S)
BRANDYWINE LGT   0100   56 54  150/ 13/ 14 1020.5R
CAPE MAY NJ      0100   56 62  110/  6/  7 1020.3R
LEWES DE         0100   63 58  200/  5/  7 1020.3R
15NM E FENWICK I 0150   53 52              1021.0R   4/11
OCEAN-CITY-INLET 0100   57 53  200/  3/  3 1020.5R
WACHAPREAGUE VA  0100   65 63  220/  6/  9 1021.0R
THOMAS POINT MD  0200   63 60  180/  9/ 10 1021.2R
GOOSES REEF MD   0200   64 60                N/A     0
COVE POINT MD    0100   70     210/ 12/ 13 1020.7R
SOLOMONS ISLAND  0100      62                N/A
BISHOPS HEAD MD  0100   66 67  200/  8/  9 1020.1R
PINEY POINT MD   0100          180/  6/  7   N/A
CAMBRIDGE MD     0100   68 61  200/  3/  5 1020.0R
LEWISETTA VA     0100   69 64              1020.3R
RAPPAHANNOCK LGT 0100          160/ 10/ 10 1021.5R
YORK RVR RNG VA  0100   65     160/ 11/ 12 1020.4R
YORKTOWN VA      0100   64 60   CALM  /  2 1020.8R
JAMESTOWN VA     0200   65 64  110/  2/  2 1020.7R
DOMINION TERM VA 0100   71     110/  5/  7 1021.1R
KIPTOPEKE VA     0100      64  150/  6/  7   N/A
CHES BAY BRIDGE  0100   69 58  150/  7/  8 1020.8R
CAPE HENRY VA    0100   70     170/  8/  9 1020.0R
CHESAPEAKE LGHT  0100   65     190/ 21/ 21 1021.6R
WILLOUBY STN VA  0100   72     150/  9/ 10 1021.8R
S CRANEY ISL VA  0100          130/  5/  6 1021.2R
CAPE HENRY BUOY  0128      56                N/A     3/11   2/11
1ST LANDING BUOY 0200      60                N/A     2/ 6
CAPE CHARLES BUO 0126      58                N/A     3/10   3/10
OFFSHORE WE BUOY 0111      54                N/A     4/11   3/11
64NM E OF VA BCH 0150   64 63  220/ 10/ 12 1021.9R   5/11   5/11
DUCK PIER NC     0100   70 55  190/ 12/ 14 1020.9R
44056 DUCK FRF   0111      58                N/A     4/12   2/12
OREGON INLET NC  0100   64 65  210/ 10/ 10 1022.3R
HATTERAS NC      0100   65 65  230/  6/  8 1022.3R
DIAMOND SHLS NC  0150   65 61  250/  6/  8 1023.5R   5/ 8   5/ 8
CAPE LOOKOUT NC  0200   67     210/  5/  6 1023.6R
$$


USA.gov is the U.S. government's official web portal to all federal, state and local government web resources and services.